MESAT1 (60209 NORAD) Tracking and Keplerian Element Data

This shows tracking and keplerian element data for the satellite.

Feedback or suggestion? Click here.




ElementValue
Catalog60209
NameMESAT1
Epoch Orbit1518
Epoch Day286.08871209
Epoch Year2024
RAAN136.102
Inclination97.3079
Eccentricity0.0022838
Argument of Perigee274.9215
Mean Anonmoly84.9415
Mean Motion15.23397418
Decay Rate0.00033898
L11 60209U 24125G 24286.08871209 .00033898 00000+0 14124-2 0 9992
L22 60209 97.3079 136.1020 0022838 274.9215 84.9415 15.23397418 15189



Live tracking and technical data element details for MESAT1 (NORAD 60209). MESAT1 can be tracked NOW for your location showing map with azimuth and elevation plus other details from your city location.







IsCatalogInMostPopularTable: catalog: 60209, numindb: 11
Update: records affected: 1



GetName: 60209 MESAT1

Hit Count: updated at: Thu, 23 Jan 2025 18:09:27 GMT